EW8655 Weather Reports


Display with metric or nautical units.
time (UTC)temp
F
wind
direction
speed
MPH
gust
MPH
rain 1hr
in
rain 24hr
in
rain mn
in
humidity
%
barometer
mb
20260902155006 78 216 9.0 14.0 0.00 0.00 0.00 95 1012.1
20260902154506 77 206 9.0 12.0 0.00 0.00 0.00 97 1012.1
20260902154006 77 200 9.0 12.0 0.00 0.00 0.00 99 1011.9
20260902153507 76 195 8.0 12.0 0.00 0.00 0.00 99 1012.1
20260902153007 75 205 7.0 12.0 0.00 0.00 0.00 99 1012.1
20260902152506 75 218 9.0 12.0 0.00 0.00 0.00 99 1012.1
20260902152007 74 191 7.0 12.0 0.00 0.00 0.00 99 1012.1
20260902151505 73 211 9.0 14.0 0.00 0.00 0.00 99 1012.1
20260902151007 73 222 10.0 14.0 0.00 0.00 0.00 99 1012.1
20260902150506 73 222 9.0 12.0 0.00 0.00 0.00 99 1012.1
20260902150005 73 214 9.0 12.0 0.00 0.00 0.00 99 1012.1
20260902144007 72 199 9.0 16.0 0.00 0.00 0.00 99 1012.1
20260902143506 72 196 10.0 14.0 0.00 0.00 0.00 99 1012.1
20260902143006 72 195 9.0 16.0 0.00 0.00 0.00 99 1012.1
20260902142506 71 193 12.0 16.0 0.00 0.00 0.00 99 1012.1
20260902141506 71 194 9.0 12.0 0.00 0.00 0.00 99 1012.1
20260902140006 69 150 0.0 5.0 0.00 0.00 0.00 99 1013.1
20260902135506 69 143 0.0 5.0 0.00 0.00 0.00 99 1013.1
20260902135007 69 135 0.0 5.0 0.00 0.00 0.00 99 1013.1
20260902134506 69 95 0.0 7.0 0.00 0.00 0.00 99 1013.1
20260902134006 69 143 1.0 12.0 0.00 0.00 0.00 99 1013.1
20260902133506 68 191 8.0 12.0 0.00 0.00 0.00 99 1013.1
20260902133006 68 198 7.0 12.0 0.00 0.00 0.00 99 1013.1
20260902132505 68 214 5.0 7.0 0.00 0.00 0.00 99 1013.1
20260902132006 68 202 5.0 7.0 0.00 0.00 0.00 99 1013.1
20260902131505 67 203 5.0 7.0 0.00 0.00 0.00 99 1013.1
20260902130506 67 283 2.0 7.0 0.00 0.00 0.00 98 1013.1
20260902130006 68 310 5.0 9.0 0.00 0.00 0.00 98 1013.1
20260902125505 68 324 5.0 12.0 0.00 0.00 0.00 98 1013.1
20260902125006 68 338 5.0 12.0 0.00 0.00 0.00 98 1013.1
20260902124505 69 315 5.0 14.0 0.00 0.00 0.00 98 1013.1
20260902124006 69 317 5.0 14.0 0.00 0.00 0.00 97 1013.1
20260902123007 70 343 10.0 24.0 0.00 0.00 0.00 97 1013.1
20260902122505 72 248 0.0 14.0 0.00 0.00 0.00 98 1013.1
20260902122006 72 147 1.0 5.0 0.00 0.00 0.00 99 1012.1
20260902121505 72 120 3.0 12.0 0.00 0.00 0.00 98 1013.1
20260902121006 72 102 7.0 12.0 0.00 0.00 0.00 98 1012.1
20260902120505 72 91 9.0 12.0 0.00 0.00 0.00 98 1012.1
20260902120006 72 90 7.0 9.0 0.00 0.00 0.00 98 1012.1
20260902115505 72 87 5.0 7.0 0.00 0.00 0.00 98 1012.1
20260902115006 72 83 5.0 7.0 0.00 0.00 0.00 98 1012.1
20260902114006 72 102 5.0 5.0 0.00 0.00 0.00 98 1012.1
20260902113506 73 106 2.0 5.0 0.00 0.00 0.00 98 1012.1
20260902113006 73 108 0.0 0.0 0.00 0.00 0.00 98 1012.1
20260902112505 73 114 0.0 2.0 0.00 0.00 0.00 97 1010.1
20260902112006 72 123 0.0 2.0 0.00 0.00 0.00 97 1010.1
20260902111505 72 119 0.0 0.0 0.00 0.00 0.00 97 1010.1
20260902110505 72 114 0.0 0.0 0.00 0.00 0.00 97 1011.1
20260902110008 73 122 0.0 0.0 0.00 0.00 0.00 97 1011.1
20260902105505 73 124 0.0 0.0 0.00 0.00 0.00 97 1011.1
20260902105006 73 126 0.0 0.0 0.00 0.00 0.00 97 1010.1
20260902104505 73 138 0.0 0.0 0.00 0.00 0.00 97 1010.1
20260902104006 73 129 0.0 0.0 0.00 0.00 0.00 97 1010.1
20260902103506 73 135 0.0 0.0 0.00 0.00 0.00 97 1010.1
20260902103006 73 134 0.0 0.0 0.00 0.00 0.00 97 1010.1
20260902102505 73 123 0.0 0.0 0.00 0.00 0.00 97 1011.1
20260902102007 73 111 0.0 0.0 0.00 0.00 0.00 97 1010.1
20260902101505 73 122 0.0 2.0 0.00 0.00 0.00 97 1010.1
20260902101006 73 140 0.0 2.0 0.00 0.00 0.00 97 1010.1
20260902100006 73 149 0.0 2.0 0.00 0.00 0.00 97 1010.2
20260902095506 73 152 0.0 5.0 0.00 0.00 0.00 97 1010.1
20260902095009 73 160 1.0 5.0 0.00 0.00 0.00 97 1010.6
20260902094506 73 165 0.0 2.0 0.00 0.00 0.00 97 1011.1
20260902094008 73 172 1.0 5.0 0.00 0.00 0.00 97 1011.1
20260902093507 73 161 2.0 5.0 0.00 0.00 0.00 97 1012.1
20260902093007 73 170 2.0 7.0 0.00 0.00 0.00 97 1012.1
20260902092507 73 176 5.0 7.0 0.00 0.00 0.00 97 1012.1
20260902091507 73 194 5.0 7.0 0.00 0.00 0.00 97 1012.1
20260902091007 73 186 5.0 7.0 0.00 0.00 0.00 97 1012.1
20260902085507 73 179 0.0 2.0 0.00 0.00 0.00 97 1012.1
20260902085008 73 163 0.0 5.0 0.00 0.00 0.00 97 1012.1
20260902084007 73 183 2.0 5.0 0.00 0.00 0.00 97 1012.1
20260902083507 73 183 2.0 5.0 0.00 0.00 0.00 97 1012.1
20260902083008 73 171 2.0 7.0 0.00 0.00 0.00 97 1012.1
20260902082507 73 177 2.0 7.0 0.00 0.00 0.00 97 1012.1
20260902082008 73 179 2.0 5.0 0.00 0.00 0.00 97 1012.1
20260902081507 73 188 5.0 5.0 0.00 0.00 0.00 97 1012.1
20260902081009 73 196 5.0 5.0 0.00 0.00 0.00 97 1012.1
20260902080508 72 202 5.0 5.0 0.00 0.00 0.00 97 1012.1
20260902080009 72 193 5.0 5.0 0.00 0.00 0.00 97 1012.1
20260902074507 72 188 1.0 5.0 0.00 0.00 0.00 97 1012.1
20260902074008 72 175 0.0 2.0 0.00 0.00 0.00 97 1012.1
20260902073008 71 159 0.0 2.0 0.00 0.00 0.00 97 1012.1
20260902072007 71 181 1.0 5.0 0.00 0.00 0.00 97 1012.1
20260902071507 71 177 0.0 5.0 0.00 0.00 0.00 97 1012.1
20260902071007 71 172 0.0 0.0 0.00 0.00 0.00 97 1012.1
20260902070507 71 175 0.0 0.0 0.00 0.00 0.00 97 1012.1
20260902070008 71 149 0.0 2.0 0.00 0.00 0.00 97 1012.1
20260902065506 71 166 0.0 5.0 0.00 0.00 0.00 97 1012.1
20260902064007 71 193 1.0 5.0 0.00 0.00 0.00 97 1012.1
20260902063508 71 173 0.0 0.0 0.00 0.00 0.00 98 1012.1
20260902063008 71 143 0.0 0.0 0.00 0.00 0.00 98 1012.1
20260902062507 71 139 0.0 0.0 0.00 0.00 0.00 98 1012.1
20260902062007 71 124 0.0 0.0 0.00 0.00 0.00 98 1012.1
20260902061506 71 128 0.0 0.0 0.00 0.00 0.00 97 1012.1
20260902061007 71 139 0.0 0.0 0.00 0.00 0.00 97 1013.1
20260902060508 70 136 0.0 0.0 0.00 0.00 0.00 97 1013.1
20260902060007 71 134 0.0 0.0 0.00 0.00 0.00 97 1013.1
20260902055507 71 132 0.0 0.0 0.00 0.00 0.00 97 1013.1
20260902055008 71 136 0.0 0.0 0.00 0.00 0.00 97 1013.1
20260902054507 71 136 0.0 0.0 0.00 0.00 0.00 97 1013.1
20260902053508 71 124 0.0 0.0 0.00 0.00 0.00 97 1013.1
20260902053007 71 137 0.0 0.0 0.00 0.00 0.00 97 1013.1
20260902052507 71 140 0.0 0.0 0.00 0.00 0.00 97 1013.1
20260902051507 71 131 0.0 0.0 0.00 0.00 0.00 97 1013.1
20260902051008 71 131 0.0 0.0 0.00 0.00 0.00 97 1013.1
20260902050507 71 139 0.0 0.0 0.00 0.00 0.00 97 1013.1
20260902050008 71 139 0.0 0.0 0.00 0.00 0.00 97 1013.1
20260902045507 71 132 0.0 0.0 0.00 0.00 0.00 97 1013.1
20260902044507 71 139 0.0 0.0 0.00 0.00 0.00 97 1013.1
20260902044008 71 136 0.0 0.0 0.00 0.00 0.00 97 1013.1
20260902043508 71 120 0.0 2.0 0.00 0.00 0.00 97 1013.1
20260902042507 71 110 0.0 2.0 0.00 0.00 0.00 97 1013.1
20260902042008 71 112 0.0 2.0 0.00 0.00 0.00 97 1013.1
20260902041507 71 141 0.0 0.0 0.00 0.00 0.00 97 1013.1
20260902041007 71 120 0.0 0.0 0.00 0.00 0.00 97 1013.1
20260902040007 71 113 0.0 0.0 0.00 0.00 0.00 97 1013.1
20260902035007 71 144 0.0 0.0 0.00 0.00 0.00 97 1013.1
20260902034506 71 142 0.0 0.0 0.00 0.00 0.00 97 1013.1
20260902034007 71 145 0.0 0.0 0.00 0.00 0.00 97 1013.1
20260902033008 71 130 0.0 0.0 0.00 0.00 0.00 97 1013.1
20260902032007 71 122 0.0 2.0 0.00 0.00 0.00 98 1013.1
20260902031507 71 112 0.0 0.0 0.00 0.00 0.00 98 1013.1
20260902030507 71 119 0.0 0.0 0.00 0.00 0.00 98 1013.1
20260902030007 71 142 0.0 0.0 0.00 0.00 0.00 98 1013.1
20260902025507 71 134 0.0 0.0 0.00 0.00 0.00 98 1013.1
20260902025008 71 142 0.0 0.0 0.00 0.00 0.00 98 1013.1
20260902024007 71 129 0.0 0.0 0.00 0.00 0.00 98 1013.1
20260902023507 71 120 0.0 0.0 0.00 0.00 0.00 98 1013.1
20260902023007 71 145 0.0 2.0 0.00 0.00 0.00 97 1013.1
20260902022507 71 136 0.0 2.0 0.00 0.00 0.00 97 1013.1
20260902022008 71 142 0.0 0.0 0.00 0.00 0.00 97 1013.1
20260902021506 71 128 0.0 0.0 0.00 0.00 0.00 97 1013.1
20260902021007 71 139 0.0 2.0 0.00 0.00 0.00 97 1013.1
20260902020507 71 136 0.0 2.0 0.00 0.00 0.00 97 1013.1
20260902020007 71 125 0.0 2.0 0.00 0.00 0.00 97 1013.1
20260902015506 71 115 0.0 2.0 0.00 0.00 0.00 97 1013.1
20260902015007 71 118 2.0 5.0 0.00 0.00 0.00 97 1013.1
20260902014507 71 125 2.0 5.0 0.00 0.00 0.00 97 1013.1
20260902013507 71 121 5.0 9.0 0.00 0.00 0.00 97 1013.1
20260902013007 71 112 6.0 9.0 0.00 0.00 0.00 97 1013.1
20260902012506 71 98 7.0 9.0 0.00 0.00 0.00 97 1013.1
20260902012007 71 102 7.0 9.0 0.00 0.00 0.00 97 1013.1
20260902011506 71 78 7.0 9.0 0.00 0.00 0.00 97 1013.1
20260902011007 71 96 7.0 9.0 0.00 0.00 0.00 97 1013.1
20260902010507 71 73 7.0 9.0 0.00 0.00 0.00 97 1013.1
20260902005506 71 73 7.0 7.0 0.00 0.00 0.00 97 1013.1
20260902005007 71 79 7.0 7.0 0.00 0.00 0.00 97 1013.1
20260902004007 71 82 7.0 9.0 0.00 0.00 0.00 96 1012.1
20260902003507 71 73 7.0 7.0 0.00 0.00 0.00 96 1012.1
20260902003007 71 82 5.0 7.0 0.00 0.00 0.00 96 1012.1
20260902002506 71 86 5.0 7.0 0.00 0.00 0.00 96 1012.1
20260902002007 71 85 5.0 7.0 0.00 0.00 0.00 96 1012.1
20260902001506 71 82 5.0 5.0 0.00 0.00 0.00 96 1012.1
20260902001008 71 84 5.0 5.0 0.00 0.00 0.00 96 1012.1
20260901235507 71 94 5.0 7.0 0.00 0.00 0.00 95 1012.1
20260901235007 71 80 5.0 5.0 0.00 0.00 0.00 95 1012.1
20260901234506 71 96 5.0 7.0 0.00 0.00 0.00 95 1012.1
20260901234007 71 101 5.0 7.0 0.00 0.00 0.00 94 1012.1
20260901233507 71 76 5.0 5.0 0.00 0.00 0.00 94 1012.1
20260901232507 71 90 5.0 7.0 0.00 0.00 0.00 94 1012.1
20260901231507 72 76 5.0 5.0 0.00 0.00 0.00 93 1012.1
20260901230507 72 71 5.0 7.0 0.00 0.00 0.00 92 1012.1
20260901225506 73 81 5.0 7.0 0.00 0.00 0.00 92 1012.1
20260901225007 73 96 5.0 7.0 0.00 0.00 0.00 92 1012.1
20260901223507 73 85 5.0 5.0 0.00 0.00 0.00 91 1012.1
20260901223007 73 78 2.0 5.0 0.00 0.00 0.00 91 1012.1
20260901222506 74 79 3.0 5.0 0.00 0.00 0.00 91 1012.1
20260901222007 74 80 5.0 5.0 0.00 0.00 0.00 91 1012.1
20260901221507 73 78 5.0 5.0 0.00 0.00 0.00 91 1012.1
20260901221007 73 74 5.0 5.0 0.00 0.00 0.00 91 1012.1
20260901220507 73 74 5.0 5.0 0.00 0.00 0.00 91 1012.1
20260901220007 73 93 5.0 5.0 0.00 0.00 0.00 91 1012.1
20260901215507 74 72 5.0 5.0 0.00 0.00 0.00 91 1012.1
20260901215007 74 67 5.0 7.0 0.00 0.00 0.00 91 1012.1
20260901214506 74 69 5.0 7.0 0.00 0.00 0.00 91 1012.1
20260901214007 74 72 5.0 7.0 0.00 0.00 0.00 91 1012.1
20260901213507 73 78 5.0 5.0 0.00 0.00 0.00 91 1012.1
20260901213007 73 84 5.0 5.0 0.00 0.00 0.00 91 1012.1
20260901212507 74 80 5.0 7.0 0.00 0.00 0.00 91 1012.1
20260901212007 74 88 5.0 7.0 0.00 0.00 0.00 91 1012.1
20260901211507 74 88 5.0 5.0 0.00 0.00 0.00 91 1012.1
20260901211007 73 75 5.0 5.0 0.00 0.00 0.00 91 1012.1
20260901210006 73 75 5.0 7.0 0.00 0.00 0.00 90 1012.1
20260901205506 74 69 5.0 7.0 0.00 0.00 0.00 90 1012.1
20260901204506 75 90 2.0 5.0 0.00 0.00 0.00 91 1012.1
20260901202506 73 97 5.0 7.0 0.00 0.00 0.00 92 1012.1
20260901202007 73 90 5.0 5.0 0.00 0.00 0.00 92 1012.1
20260901201506 73 84 5.0 5.0 0.00 0.00 0.00 92 1012.1
20260901201007 73 88 5.0 7.0 0.00 0.00 0.00 91 1012.1
20260901200507 73 74 5.0 7.0 0.00 0.00 0.00 91 1012.1
20260901195506 73 79 5.0 7.0 0.00 0.00 0.00 91 1012.1
20260901194506 74 83 5.0 5.0 0.00 0.00 0.00 91 1012.1
20260901194007 74 79 5.0 7.0 0.00 0.00 0.00 91 1012.1
20260901193507 74 98 5.0 7.0 0.00 0.00 0.00 91 1012.1
20260901193007 74 76 5.0 7.0 0.00 0.00 0.00 91 1012.1
20260901192506 74 78 5.0 7.0 0.00 0.00 0.00 91 1012.1
20260901192007 74 78 5.0 7.0 0.00 0.00 0.00 91 1012.1
20260901191506 73 76 5.0 7.0 0.00 0.00 0.00 91 1012.1
20260901191007 73 80 5.0 7.0 0.00 0.00 0.00 91 1012.1
20260901190507 74 88 5.0 7.0 0.00 0.00 0.00 91 1012.1
20260901190007 74 71 5.0 7.0 0.00 0.00 0.00 91 1012.1
20260901185006 74 80 5.0 7.0 0.00 0.00 0.00 92 1012.1
20260901184006 74 77 5.0 7.0 0.00 0.00 0.00 91 1012.1
20260901183506 74 71 5.0 5.0 0.00 0.00 0.00 91 1012.1
20260901183006 74 64 2.0 5.0 0.00 0.00 0.00 91 1012.1
20260901182506 74 35 4.0 5.0 0.00 0.00 0.00 91 1012.1
20260901182007 74 62 2.0 5.0 0.00 0.00 0.00 91 1012.1
20260901181506 74 37 2.0 5.0 0.00 0.00 0.00 92 1012.1
20260901181006 74 45 2.0 5.0 0.00 0.00 0.00 92 1012.1
20260901180506 74 54 2.0 5.0 0.00 0.00 0.00 92 1012.1
20260901180006 74 46 2.0 5.0 0.00 0.00 0.00 92 1012.1
20260901175506 74 43 2.0 5.0 0.00 0.00 0.00 92 1011.8
20260901175006 74 45 2.0 5.0 0.00 0.00 0.00 92 1011.3
20260901174506 74 58 2.0 5.0 0.00 0.00 0.00 92 1011.6
20260901174008 74 52 2.0 5.0 0.00 0.00 0.00 92 1011.1
20260901173507 74 47 3.0 5.0 0.00 0.00 0.00 92 1011.1
20260901173007 74 45 5.0 5.0 0.00 0.00 0.00 92 1011.1
20260901172506 74 41 5.0 5.0 0.00 0.00 0.00 92 1011.1
20260901172007 74 52 2.0 5.0 0.00 0.00 0.00 92 1011.1
20260901171006 74 57 2.0 5.0 0.00 0.00 0.00 92 1010.6
20260901170506 74 50 5.0 5.0 0.00 0.00 0.00 93 1011.1
20260901170006 74 46 2.0 5.0 0.00 0.00 0.00 93 1011.1
20260901165006 74 61 2.0 5.0 0.00 0.00 0.00 94 1010.8
20260901164506 74 36 2.0 5.0 0.00 0.00 0.00 94 1010.6
20260901164006 73 16 3.0 9.0 0.00 0.00 0.00 95 1011.1
20260901163506 73 21 5.0 12.0 0.00 0.00 0.00 95 1011.1
20260901163006 73 23 9.0 12.0 0.00 0.00 0.00 94 1011.1
20260901162505 73 13 9.0 14.0 0.00 0.00 0.00 94 1010.4
20260901162006 73 23 9.0 14.0 0.00 0.00 0.00 94 1010.1
20260901161506 73 20 7.0 14.0 0.00 0.00 0.00 94 1010.1
20260901161007 73 18 9.0 16.0 0.00 0.00 0.00 94 1010.1
20260901160506 73 37 9.0 16.0 0.00 0.00 0.00 93 1010.1
20260901155505 73 0 9.0 16.0 0.00 0.00 0.00 93 1010.1